KA7RAI Weather Reports


time (UTC)temp
F
wind
direction
speed
knots
gust
knots
rain 1hr
in
rain 24hr
in
rain mn
in
humidity
%
barometer
mb
20260507203007 95 299 0.9 2.6 0.00 0.00 0.00 10 1010.0
20260507202504 94 306 0.9 2.6 0.00 0.00 0.00 10 1010.0
20260507202004 94 294 1.7 3.5 0.00 0.00 0.00 10 1010.0
20260507201503 94 284 1.7 3.5 0.00 0.00 0.00 10 1010.0
20260507201003 94 304 1.7 3.5 0.00 0.00 0.00 11 1010.0
20260507200504 94 153 2.6 4.3 0.00 0.00 0.00 10 1010.0
20260507200003 93 313 1.7 3.5 0.00 0.00 0.00 11 1011.0
20260507195504 94 332 2.6 3.5 0.00 0.00 0.00 11 1011.0
20260507195003 93 297 1.7 3.5 0.00 0.00 0.00 11 1011.0
20260507194503 93 296 1.7 4.3 0.00 0.00 0.00 11 1011.0
20260507194004 92 311 3.5 7.0 0.00 0.00 0.00 11 1011.0
20260507193504 92 305 3.5 7.0 0.00 0.00 0.00 12 1011.0
20260507193003 92 312 3.5 5.2 0.00 0.00 0.00 12 1011.0
20260507192503 92 304 3.5 4.3 0.00 0.00 0.00 12 1011.0
20260507192004 92 197 0.9 1.7 0.00 0.00 0.00 12 1011.0
20260507191506 92 188 0.9 2.6 0.00 0.00 0.00 12 1011.0
20260507191003 92 177 1.7 2.6 0.00 0.00 0.00 12 1011.0
20260507190504 92 185 2.6 4.3 0.00 0.00 0.00 12 1011.0
20260507190005 93 173 1.7 5.2 0.00 0.00 0.00 12 1011.0
20260507185506 91 295 3.5 7.0 0.00 0.00 0.00 13 1012.0
20260507185003 91 201 0.9 1.7 0.00 0.00 0.00 13 1012.0
20260507184503 90 182 0.9 1.7 0.00 0.00 0.00 13 1012.0
20260507184004 89 290 0.0 0.9 0.00 0.00 0.00 13 1012.0
20260507183503 88 180 1.7 3.5 0.00 0.00 0.00 13 1012.0
20260507183004 89 177 1.7 4.3 0.00 0.00 0.00 14 1012.0
20260507182503 89 155 0.9 2.6 0.00 0.00 0.00 13 1012.0
20260507182004 90 176 0.9 1.7 0.00 0.00 0.00 13 1012.0
20260507181504 89 22 0.9 1.7 0.00 0.00 0.00 14 1012.0
20260507181003 89 297 0.9 1.7 0.00 0.00 0.00 14 1012.0
20260507180504 88 227 0.9 2.6 0.00 0.00 0.00 15 1012.0
20260507180007 89 181 0.9 1.7 0.00 0.00 0.00 14 1012.0
20260507175504 88 187 0.9 1.7 0.00 0.00 0.00 14 1012.0
20260507175003 89 186 0.9 1.7 0.00 0.00 0.00 15 1012.0
20260507174503 88 131 0.9 1.7 0.00 0.00 0.00 16 1013.0
20260507174003 87 310 0.9 2.6 0.00 0.00 0.00 15 1013.0
20260507173505 87 282 1.7 2.6 0.00 0.00 0.00 16 1013.0
20260507173003 87 177 1.7 3.5 0.00 0.00 0.00 17 1013.0
20260507172504 86 168 0.0 1.7 0.00 0.00 0.00 17 1013.0
20260507172005 85 238 0.9 1.7 0.00 0.00 0.00 16 1013.0
20260507171504 85 167 1.7 2.6 0.00 0.00 0.00 18 1013.0
20260507171003 84 302 0.9 2.6 0.00 0.00 0.00 20 1013.0
20260507170506 84 329 1.7 3.5 0.00 0.00 0.00 20 1013.0
20260507170006 84 187 0.9 2.6 0.00 0.00 0.00 20 1013.0
20260507165503 84 176 1.7 3.5 0.00 0.00 0.00 20 1013.0
20260507165007 83 330 0.0 0.9 0.00 0.00 0.00 21 1013.0
20260507164503 83 178 0.9 2.6 0.00 0.00 0.00 22 1013.0
20260507164005 83 166 0.9 2.6 0.00 0.00 0.00 23 1013.0
20260507163506 82 335 0.9 1.7 0.00 0.00 0.00 24 1013.0
20260507163005 82 203 0.9 1.7 0.00 0.00 0.00 24 1013.0
20260507162503 81 170 0.9 1.7 0.00 0.00 0.00 25 1013.0
20260507162003 80 164 0.0 1.7 0.00 0.00 0.00 26 1013.0
20260507161503 80 165 0.9 1.7 0.00 0.00 0.00 25 1013.0
20260507161007 80 177 0.0 0.9 0.00 0.00 0.00 25 1013.0
20260507160503 79 275 0.0 2.6 0.00 0.00 0.00 27 1014.0
20260507160005 79 159 0.0 1.7 0.00 0.00 0.00 28 1014.0
20260507155503 78 179 0.0 0.9 0.00 0.00 0.00 29 1014.0
20260507155003 77 182 0.0 0.9 0.00 0.00 0.00 30 1014.0
20260507154505 77 161 0.9 1.7 0.00 0.00 0.00 30 1014.0
20260507154009 76 271 0.0 1.7 0.00 0.00 0.00 31 1014.0
20260507153058 75 238 0.0 0.9 0.00 0.00 0.00 32 1014.0
20260507152503 74 17 0.0 1.7 0.00 0.00 0.00 33 1014.0
20260507152003 73 205 0.9 1.7 0.00 0.00 0.00 33 1014.0
20260507151506 73 280 0.9 1.7 0.00 0.00 0.00 34 1014.0
20260507151003 73 171 0.9 1.7 0.00 0.00 0.00 35 1014.0
20260507150504 72 174 0.9 1.7 0.00 0.00 0.00 34 1014.0
20260507150008 72 154 0.9 1.7 0.00 0.00 0.00 35 1014.0
20260507145504 72 337 0.0 0.9 0.00 0.00 0.00 35 1014.0
20260507145004 72 222 0.9 1.7 0.00 0.00 0.00 33 1014.0
20260507144506 72 222 0.9 1.7 0.00 0.00 0.00 34 1014.0
20260507144004 71 61 0.9 1.7 0.00 0.00 0.00 34 1014.0
20260507143508 71 222 0.9 1.7 0.00 0.00 0.00 34 1014.0
20260507143003 71 52 0.9 1.7 0.00 0.00 0.00 35 1014.0
20260507142503 71 224 0.9 0.9 0.00 0.00 0.00 35 1014.0
20260507142005 70 68 0.9 1.7 0.00 0.00 0.00 34 1014.0
20260507141504 70 225 0.9 0.9 0.00 0.00 0.00 34 1014.0
20260507141004 70 50 0.9 0.9 0.00 0.00 0.00 33 1014.0
20260507140505 69 51 0.9 0.9 0.00 0.00 0.00 34 1014.0
20260507140011 68 49 0.9 0.9 0.00 0.00 0.00 36 1014.0
20260507135506 68 112 0.9 0.9 0.00 0.00 0.00 35 1014.0
20260507135008 67 48 0.9 0.9 0.00 0.00 0.00 36 1014.0
20260507134504 67 115 0.9 0.9 0.00 0.00 0.00 36 1014.0
20260507134004 66 165 0.9 0.9 0.00 0.00 0.00 36 1013.0
20260507133504 66 52 0.9 0.9 0.00 0.00 0.00 37 1013.0
20260507133003 66 51 0.9 0.9 0.00 0.00 0.00 37 1013.0
20260507132508 66 46 0.9 0.9 0.00 0.00 0.00 36 1013.0
20260507132007 65 46 0.9 0.9 0.00 0.00 0.00 38 1013.0
20260507131503 65 46 0.9 0.9 0.00 0.00 0.00 37 1013.0
20260507131008 65 49 0.9 0.9 0.00 0.00 0.00 37 1013.0
20260507130505 65 48 0.9 0.9 0.00 0.00 0.00 36 1013.0
20260507130004 65 47 0.9 0.9 0.00 0.00 0.00 36 1013.0
20260507125503 66 72 0.9 1.7 0.00 0.00 0.00 35 1013.0
20260507125006 66 35 0.9 1.7 0.00 0.00 0.00 35 1013.0
20260507124504 66 25 1.7 3.5 0.00 0.00 0.00 35 1013.0
20260507124003 66 17 4.3 6.1 0.00 0.00 0.00 35 1013.0
20260507123505 66 1 4.3 6.1 0.00 0.00 0.00 35 1013.0
20260507123003 66 12 3.5 4.3 0.00 0.00 0.00 35 1013.0
20260507122503 66 340 3.5 3.5 0.00 0.00 0.00 35 1013.0
20260507122003 66 29 2.6 4.3 0.00 0.00 0.00 34 1013.0
20260507121503 66 26 2.6 3.5 0.00 0.00 0.00 35 1013.0
20260507121007 66 40 1.7 2.6 0.00 0.00 0.00 35 1013.0
20260507120504 66 48 1.7 1.7 0.00 0.00 0.00 35 1013.0
20260507120005 66 50 1.7 1.7 0.00 0.00 0.00 35 1013.0
20260507115503 66 53 1.7 1.7 0.00 0.00 0.00 34 1013.0
20260507115007 65 55 1.7 1.7 0.00 0.00 0.00 35 1013.0
20260507114504 65 50 0.9 1.7 0.00 0.00 0.00 35 1013.0
20260507114004 65 64 0.9 1.7 0.00 0.00 0.00 36 1013.0
20260507113505 66 51 0.9 0.9 0.00 0.00 0.00 36 1013.0
20260507113006 65 50 0.0 0.9 0.00 0.00 0.00 36 1013.0
20260507112504 65 38 0.9 0.9 0.00 0.00 0.00 36 1013.0
20260507112003 65 41 1.7 3.5 0.00 0.00 0.00 36 1013.0
20260507111504 65 44 1.7 4.3 0.00 0.00 0.00 37 1013.0
20260507111004 65 41 1.7 3.5 0.00 0.00 0.00 37 1013.0
20260507110503 65 49 0.9 1.7 0.00 0.00 0.00 38 1013.0
20260507110003 65 61 0.9 0.9 0.00 0.00 0.00 38 1013.0
20260507105505 65 33 1.7 3.5 0.00 0.00 0.00 38 1013.0
20260507105003 65 45 2.6 4.3 0.00 0.00 0.00 39 1013.0
20260507104503 65 35 0.9 2.6 0.00 0.00 0.00 39 1013.0
20260507104004 64 30 1.7 2.6 0.00 0.00 0.00 40 1013.0
20260507103504 64 30 1.7 1.7 0.00 0.00 0.00 40 1013.0
20260507103003 63 63 0.9 0.9 0.00 0.00 0.00 41 1013.0
20260507102503 62 52 1.7 2.6 0.00 0.00 0.00 43 1013.0
20260507102007 62 70 0.9 0.9 0.00 0.00 0.00 45 1013.0
20260507101507 62 135 0.9 0.9 0.00 0.00 0.00 44 1014.0
20260507101003 63 121 0.0 0.9 0.00 0.00 0.00 44 1014.0
20260507100503 63 126 0.0 0.9 0.00 0.00 0.00 42 1014.0
20260507100005 64 118 0.9 0.9 0.00 0.00 0.00 42 1014.0
20260507095505 64 63 0.9 0.9 0.00 0.00 0.00 46 1014.0
20260507095003 65 47 0.0 0.9 0.00 0.00 0.00 40 1014.0
20260507094505 65 47 0.9 0.9 0.00 0.00 0.00 40 1014.0
20260507094005 65 50 1.7 3.5 0.00 0.00 0.00 40 1014.0
20260507093504 65 56 0.9 0.9 0.00 0.00 0.00 40 1014.0
20260507093006 64 62 1.7 1.7 0.00 0.00 0.00 40 1014.0
20260507092504 64 87 0.9 1.7 0.00 0.00 0.00 40 1014.0
20260507092007 64 46 0.9 0.9 0.00 0.00 0.00 41 1014.0
20260507091503 64 65 0.9 1.7 0.00 0.00 0.00 40 1014.0
20260507091003 65 63 0.9 0.9 0.00 0.00 0.00 41 1014.0
20260507090504 65 71 0.0 0.0 0.00 0.00 0.00 39 1014.0
20260507090007 66 74 0.9 0.9 0.00 0.00 0.00 38 1014.0
20260507085504 66 65 0.0 0.9 0.00 0.00 0.00 37 1014.0
20260507085003 67 69 0.9 0.9 0.00 0.00 0.00 37 1014.0
20260507084504 67 45 2.6 4.3 0.00 0.00 0.00 37 1014.0
20260507084004 67 53 0.9 0.9 0.00 0.00 0.00 37 1014.0
20260507083503 67 47 0.0 0.9 0.00 0.00 0.00 37 1014.0
20260507083004 68 64 0.9 0.9 0.00 0.00 0.00 36 1014.0
20260507082508 68 58 0.9 2.6 0.00 0.00 0.00 36 1014.0
20260507082003 67 58 0.9 1.7 0.00 0.00 0.00 36 1014.0
20260507081506 67 48 0.9 1.7 0.00 0.00 0.00 37 1014.0
20260507081005 67 53 0.9 0.9 0.00 0.00 0.00 38 1014.0
20260507080503 66 48 1.7 1.7 0.00 0.00 0.00 38 1014.0
20260507080003 66 44 1.7 4.3 0.00 0.00 0.00 40 1014.0
20260507075503 65 44 0.9 2.6 0.00 0.00 0.00 40 1014.0
20260507075003 65 47 0.9 1.7 0.00 0.00 0.00 41 1014.0
20260507074503 65 48 0.9 0.9 0.00 0.00 0.00 41 1014.0
20260507074005 65 47 0.9 0.9 0.00 0.00 0.00 40 1014.0
20260507073508 66 52 0.9 0.9 0.00 0.00 0.00 39 1014.0
20260507073006 66 48 0.9 1.7 0.00 0.00 0.00 39 1014.0
20260507072507 67 49 0.9 1.7 0.00 0.00 0.00 37 1014.0
20260507072003 67 46 0.9 4.3 0.00 0.00 0.00 37 1014.0
20260507071505 67 59 0.9 0.9 0.00 0.00 0.00 36 1014.0
20260507071003 67 58 0.9 1.7 0.00 0.00 0.00 38 1014.0
20260507070503 67 73 0.0 0.9 0.00 0.00 0.00 36 1014.0
20260507070007 68 55 0.9 0.9 0.00 0.00 0.00 36 1014.0
20260507065503 68 70 0.9 0.9 0.00 0.00 0.00 35 1014.0
20260507065005 68 136 0.9 2.6 0.00 0.00 0.00 35 1014.0
20260507064506 69 62 0.9 1.7 0.00 0.00 0.00 34 1014.0
20260507064003 69 55 0.9 0.9 0.00 0.00 0.00 33 1014.0
20260507063503 70 87 0.0 1.7 0.00 0.00 0.00 33 1014.0
20260507063004 69 192 0.9 2.6 0.00 0.00 0.00 33 1014.0
20260507062503 69 178 1.7 3.5 0.00 0.00 0.00 33 1014.0
20260507062010 68 142 0.9 1.7 0.00 0.00 0.00 35 1014.0
20260507061503 68 76 0.9 0.9 0.00 0.00 0.00 34 1014.0
20260507061004 68 58 0.9 0.9 0.00 0.00 0.00 34 1014.0
20260507060504 69 106 0.0 3.5 0.00 0.00 0.00 33 1014.0
20260507060006 69 66 0.9 0.9 0.00 0.00 0.00 33 1014.0
20260507055503 70 87 0.9 0.9 0.00 0.00 0.00 32 1014.0
20260507055004 70 75 0.9 0.9 0.00 0.00 0.00 31 1014.0
20260507054505 69 48 0.9 1.7 0.00 0.00 0.00 32 1014.0
20260507054003 70 74 0.9 0.9 0.00 0.00 0.00 32 1014.0
20260507053503 70 68 0.0 0.9 0.00 0.00 0.00 31 1014.0
20260507053005 71 66 0.0 0.9 0.00 0.00 0.00 30 1014.0
20260507052504 71 138 0.0 0.9 0.00 0.00 0.00 30 1014.0
20260507052003 71 96 0.9 2.6 0.00 0.00 0.00 30 1014.0
20260507051503 71 162 0.9 1.7 0.00 0.00 0.00 31 1014.0
20260507051005 71 97 0.0 0.9 0.00 0.00 0.00 30 1014.0
20260507050503 72 88 0.0 0.9 0.00 0.00 0.00 29 1014.0
20260507050003 72 66 0.0 0.9 0.00 0.00 0.00 29 1014.0
20260507045503 72 68 0.0 0.9 0.00 0.00 0.00 30 1014.0
20260507045005 73 74 0.0 0.9 0.00 0.00 0.00 30 1014.0
20260507044503 73 114 0.0 0.9 0.00 0.00 0.00 28 1014.0
20260507044003 73 86 0.0 0.9 0.00 0.00 0.00 28 1014.0
20260507043503 74 40 0.0 1.7 0.00 0.00 0.00 28 1014.0
20260507043003 74 139 0.0 0.9 0.00 0.00 0.00 27 1014.0
20260507042504 74 183 0.0 0.9 0.00 0.00 0.00 26 1014.0
20260507042004 74 83 0.9 1.7 0.00 0.00 0.00 27 1014.0
20260507041503 74 86 0.0 0.9 0.00 0.00 0.00 26 1013.0
20260507041003 75 73 0.0 0.9 0.00 0.00 0.00 27 1013.0
20260507040504 75 103 0.0 0.0 0.00 0.00 0.00 26 1013.0
20260507040003 76 354 0.0 0.0 0.00 0.00 0.00 26 1013.0
20260507035504 76 75 0.0 1.7 0.00 0.00 0.00 26 1013.0
20260507035003 76 0 0.0 0.0 0.00 0.00 0.00 25 1013.0
20260507034504 77 127 0.0 0.0 0.00 0.00 0.00 24 1013.0
20260507034003 77 142 0.0 0.0 0.00 0.00 0.00 23 1013.0
20260507033505 77 115 0.0 0.9 0.00 0.00 0.00 24 1013.0
20260507033003 77 0 0.0 0.0 0.00 0.00 0.00 24 1013.0
20260507032504 78 4 0.0 0.0 0.00 0.00 0.00 24 1013.0
20260507032004 78 172 0.0 0.9 0.00 0.00 0.00 23 1013.0
20260507031505 78 0 0.0 0.0 0.00 0.00 0.00 23 1013.0
20260507031006 79 355 0.0 0.9 0.00 0.00 0.00 22 1013.0
20260507030506 79 227 0.0 0.9 0.00 0.00 0.00 22 1013.0
20260507030005 79 256 0.0 0.9 0.00 0.00 0.00 22 1013.0
20260507025505 80 131 0.0 0.0 0.00 0.00 0.00 22 1013.0
20260507025003 80 153 0.0 0.9 0.00 0.00 0.00 21 1013.0
20260507024503 80 165 0.0 1.7 0.00 0.00 0.00 21 1012.0
20260507024007 80 212 0.0 0.9 0.00 0.00 0.00 21 1012.0
20260507023506 80 130 0.0 0.9 0.00 0.00 0.00 21 1012.0
20260507023005 81 134 0.9 1.7 0.00 0.00 0.00 21 1012.0
20260507022503 81 212 0.0 0.9 0.00 0.00 0.00 21 1012.0
20260507022003 81 200 0.9 1.7 0.00 0.00 0.00 20 1012.0
20260507021508 82 312 0.0 1.7 0.00 0.00 0.00 20 1012.0
20260507021003 82 147 0.9 1.7 0.00 0.00 0.00 20 1012.0
20260507020508 82 272 0.0 0.9 0.00 0.00 0.00 20 1012.0
20260507020003 82 252 0.9 1.7 0.00 0.00 0.00 20 1012.0
20260507015503 83 163 0.9 1.7 0.00 0.00 0.00 20 1012.0
20260507015005 83 189 1.7 1.7 0.00 0.00 0.00 20 1012.0
20260507014506 84 144 0.9 2.6 0.00 0.00 0.00 20 1012.0
20260507014006 85 133 0.9 1.7 0.00 0.00 0.00 19 1012.0
20260507013504 85 303 1.7 2.6 0.00 0.00 0.00 19 1012.0
20260507013008 85 164 0.0 0.9 0.00 0.00 0.00 19 1012.0
20260507012503 85 145 0.0 0.9 0.00 0.00 0.00 19 1012.0
20260507012008 85 169 0.0 0.9 0.00 0.00 0.00 19 1012.0
20260507011505 85 311 1.7 3.5 0.00 0.00 0.00 19 1012.0
20260507011004 85 264 0.9 1.7 0.00 0.00 0.00 19 1012.0
20260507010508 85 307 1.7 4.3 0.00 0.00 0.00 19 1012.0
20260507010003 85 259 0.9 1.7 0.00 0.00 0.00 19 1012.0
20260507005503 85 299 1.7 3.5 0.00 0.00 0.00 19 1012.0
20260507005003 86 165 0.9 3.5 0.00 0.00 0.00 19 1012.0
20260507004503 87 163 0.9 1.7 0.00 0.00 0.00 18 1012.0
20260507004003 87 314 1.7 2.6 0.00 0.00 0.00 18 1012.0
20260507003503 87 289 0.0 1.7 0.00 0.00 0.00 18 1012.0
20260507003005 86 323 0.9 1.7 0.00 0.00 0.00 18 1012.0
20260507002503 85 327 1.7 4.3 0.00 0.00 0.00 18 1012.0
20260507002005 85 297 0.9 2.6 0.00 0.00 0.00 19 1012.0
20260507001507 85 298 0.9 5.2 0.00 0.00 0.00 19 1012.0
20260507001007 86 352 0.9 1.7 0.00 0.00 0.00 18 1012.0
20260507000503 85 293 1.7 2.6 0.00 0.00 0.00 19 1012.0
20260507000004 85 298 0.9 1.7 0.00 0.00 0.00 19 1012.0
20260506235504 85 292 1.7 3.5 0.00 0.00 0.00 19 1012.0
20260506235005 86 320 1.7 2.6 0.00 0.00 0.00 19 1012.0
20260506234507 86 315 1.7 5.2 0.00 0.00 0.00 19 1012.0
20260506234003 86 284 1.7 5.2 0.00 0.00 0.00 18 1012.0
20260506233507 86 330 2.6 4.3 0.00 0.00 0.00 18 1012.0
20260506233007 85 248 0.0 1.7 0.00 0.00 0.00 19 1012.0
20260506232504 86 129 1.7 2.6 0.00 0.00 0.00 19 1012.0
20260506232004 86 194 0.9 1.7 0.00 0.00 0.00 19 1012.0
20260506231503 86 344 2.6 3.5 0.00 0.00 0.00 19 1012.0
20260506231003 85 3 2.6 5.2 0.00 0.00 0.00 19 1012.0
20260506230506 86 306 2.6 5.2 0.00 0.00 0.00 19 1012.0
20260506230003 86 303 1.7 3.5 0.00 0.00 0.00 18 1012.0
20260506225508 86 321 1.7 3.5 0.00 0.00 0.00 19 1012.0
20260506225003 86 236 1.7 3.5 0.00 0.00 0.00 19 1012.0
20260506224504 86 147 1.7 3.5 0.00 0.00 0.00 18 1012.0
20260506224006 86 316 1.7 2.6 0.00 0.00 0.00 18 1012.0
20260506223508 86 298 0.9 2.6 0.00 0.00 0.00 18 1012.0
20260506223004 85 190 0.9 2.6 0.00 0.00 0.00 18 1012.0
20260506222507 85 1 1.7 3.5 0.00 0.00 0.00 19 1013.0
20260506222004 85 176 0.9 2.6 0.00 0.00 0.00 19 1013.0
20260506221505 86 300 1.7 5.2 0.00 0.00 0.00 18 1013.0
20260506221004 85 6 1.7 2.6 0.00 0.00 0.00 19 1013.0
20260506220504 85 185 0.9 2.6 0.00 0.00 0.00 19 1013.0
20260506220004 85 303 0.9 2.6 0.00 0.00 0.00 19 1013.0
20260506215508 84 156 1.7 2.6 0.00 0.00 0.00 19 1013.0
20260506214521 83 312 2.6 4.3 0.00 0.00 0.00 20 1013.0
20260506214003 84 325 2.6 4.3 0.00 0.00 0.00 20 1013.0
20260506213506 83 333 2.6 4.3 0.00 0.00 0.00 19 1013.0
20260506213004 83 286 1.7 4.3 0.00 0.00 0.00 20 1013.0
20260506212503 83 133 2.6 4.3 0.00 0.00 0.00 20 1013.0
20260506212004 83 326 1.7 5.2 0.00 0.00 0.00 20 1013.0
20260506211503 84 316 3.5 5.2 0.00 0.00 0.00 20 1014.0
20260506211003 84 284 0.9 6.1 0.00 0.00 0.00 19 1014.0
20260506210017 83 302 1.7 4.3 0.00 0.00 0.00 20 1014.0
20260506205506 83 146 0.9 2.6 0.00 0.00 0.00 20 1014.0
20260506205008 83 213 0.9 1.7 0.00 0.00 0.00 20 1014.0
20260506204503 83 328 1.7 3.5 0.00 0.00 0.00 21 1014.0
20260506204004 82 334 3.5 6.1 0.00 0.00 0.00 22 1014.0
20260506203505 82 294 3.5 7.0 0.00 0.00 0.00 21 1014.0